TimeCST,TemperatureF,Dew PointF,Humidity,Sea Level PressureIn,VisibilityMPH,Wind Direction,Wind SpeedMPH,Gust SpeedMPH,PrecipitationIn,Events,Conditions,WindDirDegrees,DateUTC
12:15 AM,17.6,12.2,79,30.18,10.0,Calm,Calm,-,N/A,,Clear,0,2013-01-04 06:15:00
12:35 AM,17.6,14.0,86,30.17,10.0,SW,4.6,-,N/A,,Clear,230,2013-01-04 06:35:00
12:55 AM,19.4,14.0,80,30.17,10.0,SSW,5.8,-,N/A,,Clear,210,2013-01-04 06:55:00
1:15 AM,19.4,12.2,74,30.16,10.0,SSW,8.1,-,N/A,,Clear,210,2013-01-04 07:15:00
1:35 AM,17.6,10.4,73,30.16,10.0,SW,3.5,-,N/A,,Clear,220,2013-01-04 07:35:00
1:55 AM,17.6,12.2,79,30.16,10.0,SW,4.6,-,N/A,,Clear,230,2013-01-04 07:55:00
2:15 AM,17.6,12.2,79,30.15,10.0,SW,5.8,-,N/A,,Clear,230,2013-01-04 08:15:00
2:35 AM,17.6,12.2,79,30.15,10.0,SSW,6.9,-,N/A,,Clear,210,2013-01-04 08:35:00
2:55 AM,17.6,10.4,73,30.15,10.0,SW,4.6,-,N/A,,Clear,220,2013-01-04 08:55:00
3:15 AM,15.8,12.2,86,30.15,10.0,Calm,Calm,-,N/A,,Clear,0,2013-01-04 09:15:00
3:35 AM,17.6,10.4,73,30.13,10.0,SSW,4.6,-,N/A,,Clear,210,2013-01-04 09:35:00
3:55 AM,17.6,10.4,73,30.13,10.0,SSW,3.5,-,N/A,,Clear,210,2013-01-04 09:55:00
4:15 AM,17.6,10.4,73,30.14,10.0,SW,3.5,-,N/A,,Clear,230,2013-01-04 10:15:00
4:35 AM,15.8,12.2,86,30.14,10.0,Calm,Calm,-,N/A,,Clear,0,2013-01-04 10:35:00
4:55 AM,10.4,8.6,92,30.15,10.0,Calm,Calm,-,N/A,,Clear,0,2013-01-04 10:55:00
5:15 AM,10.4,1.4,67,30.15,10.0,Calm,Calm,-,N/A,,Clear,0,2013-01-04 11:15:00
5:35 AM,14.0,14.0,100,30.14,10.0,SW,3.5,-,N/A,,Clear,220,2013-01-04 11:35:00
5:55 AM,12.2,8.6,85,30.14,10.0,SSW,5.8,-,N/A,,Clear,210,2013-01-04 11:55:00
6:15 AM,12.2,10.4,92,30.13,10.0,SSW,6.9,-,N/A,,Clear,210,2013-01-04 12:15:00
6:35 AM,14.0,10.4,86,30.13,10.0,SSW,8.1,-,N/A,,Clear,200,2013-01-04 12:35:00
7:15 AM,10.4,6.8,85,30.14,10.0,Calm,Calm,-,N/A,,Clear,0,2013-01-04 13:15:00
7:35 AM,8.6,6.8,92,30.13,10.0,NNW,3.5,-,N/A,,Clear,340,2013-01-04 13:35:00
7:55 AM,8.6,5.0,85,30.13,10.0,Calm,Calm,-,N/A,,Clear,0,2013-01-04 13:55:00
8:15 AM,12.2,10.4,92,30.14,10.0,Calm,Calm,-,N/A,,Clear,0,2013-01-04 14:15:00
8:35 AM,10.4,6.8,85,30.14,10.0,Calm,Calm,-,N/A,,Clear,0,2013-01-04 14:35:00
8:55 AM,14.0,6.8,73,30.14,10.0,WSW,3.5,-,N/A,,Clear,250,2013-01-04 14:55:00
9:15 AM,12.2,6.8,79,30.15,10.0,WSW,3.5,-,N/A,,Clear,240,2013-01-04 15:15:00
9:35 AM,15.8,12.2,86,30.15,10.0,WSW,4.6,-,N/A,,Clear,250,2013-01-04 15:35:00
9:55 AM,17.6,12.2,79,30.16,10.0,SW,3.5,-,N/A,,Clear,230,2013-01-04 15:55:00
10:15 AM,19.4,10.4,68,30.16,10.0,WSW,3.5,-,N/A,,Clear,240,2013-01-04 16:15:00
10:35 AM,21.2,12.2,68,30.16,10.0,Calm,Calm,-,N/A,,Clear,0,2013-01-04 16:35:00
10:55 AM,23.0,12.2,63,30.17,10.0,SW,3.5,-,N/A,,Clear,230,2013-01-04 16:55:00
11:15 AM,24.8,15.8,69,30.16,10.0,SW,3.5,-,N/A,,Clear,230,2013-01-04 17:15:00
11:35 AM,24.8,14.0,64,30.16,10.0,Calm,Calm,-,N/A,,Clear,0,2013-01-04 17:35:00
11:55 AM,26.6,14.0,59,30.15,10.0,Calm,Calm,-,N/A,,Clear,0,2013-01-04 17:55:00
12:15 PM,26.6,15.8,64,30.14,10.0,Calm,Calm,-,N/A,,Clear,0,2013-01-04 18:15:00
12:35 PM,30.2,15.8,55,30.13,10.0,Calm,Calm,-,N/A,,Clear,0,2013-01-04 18:35:00
12:55 PM,28.4,12.2,51,30.13,10.0,NNW,4.6,-,N/A,,Clear,330,2013-01-04 18:55:00
1:15 PM,28.4,17.6,64,30.12,10.0,WNW,4.6,-,N/A,,Clear,300,2013-01-04 19:15:00
1:35 PM,28.4,19.4,69,30.12,10.0,Calm,Calm,-,N/A,,Clear,0,2013-01-04 19:35:00
1:55 PM,28.4,17.6,64,30.12,10.0,Calm,Calm,-,N/A,,Clear,0,2013-01-04 19:55:00
2:15 PM,30.2,15.8,55,30.11,10.0,WNW,4.6,-,N/A,,Clear,290,2013-01-04 20:15:00
2:35 PM,30.2,17.6,60,30.11,10.0,NW,5.8,-,N/A,,Clear,320,2013-01-04 20:35:00
2:55 PM,30.2,15.8,55,30.11,10.0,NNW,4.6,-,N/A,,Clear,330,2013-01-04 20:55:00
3:15 PM,30.2,17.6,60,30.11,10.0,Calm,Calm,-,N/A,,Clear,0,2013-01-04 21:15:00
3:35 PM,32.0,15.8,51,30.11,10.0,Calm,Calm,-,N/A,,Clear,0,2013-01-04 21:35:00
3:55 PM,30.2,17.6,60,30.11,10.0,Calm,Calm,-,N/A,,Clear,0,2013-01-04 21:55:00
4:15 PM,30.2,17.6,60,30.11,10.0,East,5.8,-,N/A,,Clear,80,2013-01-04 22:15:00
4:35 PM,26.6,17.6,69,30.12,10.0,SE,4.6,-,N/A,,Clear,130,2013-01-04 22:35:00
5:15 PM,26.6,15.8,64,30.11,10.0,East,4.6,-,N/A,,Clear,90,2013-01-04 23:15:00
5:35 PM,24.8,15.8,69,30.10,10.0,ESE,4.6,-,N/A,,Clear,120,2013-01-04 23:35:00
5:55 PM,23.0,15.8,74,30.10,10.0,East,4.6,-,N/A,,Clear,80,2013-01-04 23:55:00
6:15 PM,21.2,17.6,86,30.10,10.0,Calm,Calm,-,N/A,,Clear,0,2013-01-05 00:15:00
6:35 PM,21.2,15.8,80,30.10,10.0,East,3.5,-,N/A,,Clear,90,2013-01-05 00:35:00
6:55 PM,21.2,15.8,80,30.10,10.0,Calm,Calm,-,N/A,,Clear,0,2013-01-05 00:55:00
7:15 PM,19.4,12.2,74,30.09,8.0,NE,4.6,-,N/A,,Clear,40,2013-01-05 01:15:00
7:35 PM,19.4,15.8,86,30.08,5.0,NE,4.6,-,N/A,,Clear,40,2013-01-05 01:35:00
7:55 PM,19.4,14.0,80,30.08,9.0,NE,4.6,-,N/A,,Clear,50,2013-01-05 01:55:00
8:15 PM,17.6,15.8,93,30.07,10.0,ENE,4.6,-,N/A,,Clear,60,2013-01-05 02:15:00
8:35 PM,17.6,12.2,79,30.07,10.0,ENE,4.6,-,N/A,,Clear,70,2013-01-05 02:35:00
8:55 PM,17.6,12.2,79,30.07,10.0,East,3.5,-,N/A,,Clear,90,2013-01-05 02:55:00
9:35 PM,15.8,12.2,86,30.06,9.0,SSE,3.5,-,N/A,,Clear,160,2013-01-05 03:35:00
9:55 PM,15.8,12.2,86,30.06,10.0,Calm,Calm,-,N/A,,Clear,0,2013-01-05 03:55:00
10:15 PM,15.8,12.2,86,30.05,9.0,Calm,Calm,-,N/A,,Clear,0,2013-01-05 04:15:00
10:35 PM,14.0,12.2,93,30.05,8.0,East,3.5,-,N/A,,Clear,90,2013-01-05 04:35:00
10:55 PM,14.0,10.4,86,30.05,10.0,Calm,Calm,-,N/A,,Clear,0,2013-01-05 04:55:00
11:15 PM,14.0,12.2,93,30.04,7.0,Calm,Calm,-,N/A,,Clear,0,2013-01-05 05:15:00
11:35 PM,10.4,5.0,79,30.04,8.0,North,3.5,-,N/A,,Clear,10,2013-01-05 05:35:00
11:55 PM,12.2,12.2,100,30.04,10.0,NE,3.5,-,N/A,,Clear,50,2013-01-05 05:55:00